Date String (YYYY-MM-DD hh:mm:ss) UTC,Instrument flags,Ambient pressure (hPa),Sample flow (lpm),Bypass flow (lpm),Sample temperature (°C),Ambient temperature (°C),ASC tube jacket temperature (°C),LED temperature (°C),Box temperature (°C),Sample RH (%),Span deviation,Mass concentration (μg/m³),Mass concentration (μg/m³),Mass concentration (μg/m³)
DateTimeUTC,F1_M11,P_M11,Q1_M11,Q2_M11,T1_M11,T2_M11,T3_M11,T4_M11,T5_M11,U1_M11,ZSPAN_M11,X2_M11,X0_M11,X1_M11
2023-04-07 14:00:00,,0833.9,5.00,0.00,22.4,20.8,00.0,30.8,23.9,09.0,0000.0,0002.64,0004.79,0001.83
2023-04-07 14:01:00,,0833.8,4.99,0.00,22.4,20.8,00.0,30.8,23.9,08.9,0000.0,0002.64,0005.01,0001.81
2023-04-07 14:02:00,,0833.8,5.01,0.00,22.4,20.8,00.0,30.8,23.9,08.8,0000.0,0002.64,0005.44,0001.80
2023-04-07 14:03:00,,0833.8,5.01,0.00,22.4,20.8,00.0,30.8,23.9,08.8,0000.0,0002.61,0005.38,0001.78
2023-04-07 14:04:00,,0833.8,5.00,0.00,22.4,20.8,00.0,30.8,23.9,08.8,0000.0,0002.60,0005.37,0001.77
2023-04-07 14:05:00,,0833.8,4.99,0.00,22.4,20.8,00.0,30.8,23.9,08.6,0000.0,0002.62,0005.63,0001.74
2023-04-07 14:06:00,,0833.8,5.01,0.00,22.4,20.8,00.0,30.8,23.9,08.8,0000.0,0002.63,0005.69,0001.74
2023-04-07 14:07:00,,0833.8,5.00,0.00,22.5,21.4,00.0,30.8,24.2,09.0,0000.0,0002.68,0005.79,0001.74
2023-04-07 14:08:00,,0833.8,5.01,0.00,22.6,23.0,00.0,30.8,24.7,09.1,0000.0,0002.72,0005.76,0001.74
2023-04-07 14:09:00,,0833.9,4.99,0.00,22.8,23.9,00.0,30.8,24.9,08.7,0000.0,0002.72,0005.58,0001.75
2023-04-07 14:10:00,,0833.8,4.99,0.00,22.8,23.7,00.0,30.9,24.8,08.4,0000.0,0002.74,0005.55,0001.75
2023-04-07 14:11:00,,0833.8,5.00,0.00,22.9,23.3,00.0,30.9,24.6,08.6,0000.0,0002.72,0005.77,0001.75
2023-04-07 14:12:00,,0833.8,5.01,0.00,22.9,23.0,00.0,31.0,24.5,09.0,0000.0,0002.71,0005.77,0001.76
2023-04-07 14:13:00,,0833.8,5.00,0.00,22.9,22.6,00.0,31.0,24.5,09.1,0000.0,0002.74,0005.63,0001.77
2023-04-07 14:14:00,,0833.8,5.00,0.00,22.9,22.4,00.0,31.0,24.5,08.9,0000.0,0002.73,0006.56,0001.78
2023-04-07 14:15:00,,0833.9,4.99,0.00,22.9,22.2,00.0,31.1,24.5,08.5,0000.0,0002.78,0007.30,0001.78
2023-04-07 14:16:00,,0833.8,5.01,0.00,22.8,22.0,00.0,31.1,24.4,08.7,0000.0,0002.84,0007.24,0001.80
2023-04-07 14:17:00,,0833.9,5.01,0.00,22.8,21.9,00.0,31.1,24.4,08.7,0000.0,0002.80,0007.16,0001.82
2023-04-07 14:18:00,,0833.8,5.00,0.00,22.8,21.8,00.0,31.1,24.4,08.9,0000.0,0002.81,0007.66,0001.80
2023-04-07 14:19:00,,0833.8,5.00,0.00,22.8,21.7,00.0,31.1,24.4,09.0,0000.0,0002.79,0007.81,0001.81
2023-04-07 14:20:00,,0833.8,5.00,0.00,22.8,21.6,00.0,31.1,24.4,09.3,0000.0,0002.75,0007.96,0001.81
2023-04-07 14:21:00,,0833.8,5.01,0.00,22.8,21.5,00.0,31.1,24.4,09.4,0000.0,0002.75,0007.92,0001.83
2023-04-07 14:22:00,,0833.8,5.00,0.00,22.8,21.5,00.0,31.1,24.4,09.3,0000.0,0002.77,0007.75,0001.84
2023-04-07 14:23:00,,0833.8,4.99,0.00,22.8,21.5,00.0,31.1,24.4,09.1,0000.0,0002.84,0007.84,0001.86
2023-04-07 14:24:00,,0833.8,4.99,0.00,22.8,21.5,00.0,31.1,24.4,09.2,0000.0,0002.89,0007.74,0001.88
2023-04-07 14:25:00,,0833.8,4.99,0.00,22.8,21.4,00.0,31.1,24.4,09.6,0000.0,0002.95,0007.16,0001.89
2023-04-07 14:26:00,,0833.8,5.00,0.00,22.8,21.4,00.0,31.1,24.4,09.8,0000.0,0002.91,0007.23,0001.90
2023-04-07 14:27:00,,0833.8,5.00,0.00,22.8,21.4,00.0,31.1,24.3,09.9,0000.0,0002.83,0007.78,0001.88
2023-04-07 14:28:00,,0833.8,5.01,0.00,22.8,21.4,00.0,31.1,24.3,09.7,0000.0,0002.88,0007.88,0001.87
2023-04-07 14:29:00,,0833.8,5.00,0.00,22.8,21.4,00.0,31.1,24.3,10.3,0000.0,0002.89,0007.54,0001.88
2023-04-07 14:30:00,,0833.7,4.98,0.00,22.8,21.3,00.0,31.1,24.3,10.3,0000.0,0002.84,0007.42,0001.88
2023-04-07 14:31:00,,0833.8,5.00,0.00,22.8,21.3,00.0,31.1,24.3,10.0,0000.0,0002.86,0007.35,0001.88
2023-04-07 14:32:00,,0833.8,5.01,0.00,22.8,21.3,00.0,31.1,24.3,09.8,0000.0,0002.85,0007.35,0001.87
2023-04-07 14:33:00,,0833.7,5.01,0.00,22.8,21.3,00.0,31.1,24.3,09.4,0000.0,0002.87,0007.37,0001.88
2023-04-07 14:34:00,,0833.8,4.98,0.00,22.8,21.3,00.0,31.1,24.3,09.4,0000.0,0002.88,0007.37,0001.90
2023-04-07 14:35:00,,0833.7,5.00,0.00,22.8,21.3,00.0,31.1,24.3,09.8,0000.0,0002.81,0007.36,0001.88
2023-04-07 14:36:00,,0833.8,5.01,0.00,22.8,21.3,00.0,31.1,24.3,09.6,0000.0,0002.84,0007.41,0001.89
2023-04-07 14:37:00,,0833.8,5.00,0.00,22.8,21.3,00.0,31.1,24.3,09.6,0000.0,0002.90,0006.91,0001.90
2023-04-07 14:38:00,,0833.7,4.99,0.00,22.8,21.2,00.0,31.1,24.3,09.0,0000.0,0003.03,0006.17,0001.93
2023-04-07 14:39:00,,0833.8,5.00,0.00,22.8,21.2,00.0,31.1,24.2,09.2,0000.0,0003.04,0006.04,0001.96
2023-04-07 14:40:00,,0833.7,4.99,0.00,22.7,21.2,00.0,31.1,24.2,08.6,0000.0,0003.06,0005.95,0001.99
2023-04-07 14:41:00,,0833.7,5.01,0.00,22.7,21.2,00.0,31.1,24.2,08.5,0000.0,0003.13,0006.05,0002.02
2023-04-07 14:42:00,,0833.7,5.01,0.00,22.7,21.1,00.0,31.1,24.2,08.2,0000.0,0003.18,0006.13,0002.07
2023-04-07 14:43:00,,0833.7,5.01,0.00,22.7,21.1,00.0,31.1,24.2,08.3,0000.0,0003.23,0006.38,0002.13
2023-04-07 14:44:00,,0833.7,4.98,0.00,22.7,21.0,00.0,31.0,24.1,08.2,0000.0,0003.29,0007.54,0002.19
2023-04-07 14:45:00,,0833.7,5.00,0.00,22.7,21.0,00.0,31.0,24.1,08.3,0000.0,0003.34,0007.75,0002.24
2023-04-07 14:46:00,,0833.7,4.99,0.00,22.6,21.0,00.0,31.0,24.1,08.6,0000.0,0003.40,0007.76,0002.31
2023-04-07 14:47:00,,0833.7,5.00,0.00,22.6,20.9,00.0,31.0,24.1,08.6,0000.0,0003.40,0007.92,0002.37
2023-04-07 14:48:00,,0833.7,5.00,0.00,22.6,20.9,00.0,31.0,24.1,08.8,0000.0,0003.44,0008.69,0002.41
2023-04-07 14:49:00,,0833.6,5.00,0.00,22.6,20.9,00.0,31.0,24.1,08.9,0000.0,0003.45,0009.07,0002.45
2023-04-07 14:50:00,,0833.7,4.99,0.00,22.6,20.9,00.0,31.0,24.0,08.7,0000.0,0003.52,0009.43,0002.53
2023-04-07 14:51:00,,0833.7,5.00,0.00,22.6,20.9,00.0,31.0,24.0,08.7,0000.0,0003.57,0009.67,0002.59
2023-04-07 14:52:00,,0833.7,5.00,0.00,22.6,20.8,00.0,30.9,24.0,08.6,0000.0,0003.57,0009.62,0002.63
2023-04-07 14:53:00,,0833.7,5.01,0.00,22.6,20.8,00.0,30.9,24.0,08.7,0000.0,0003.59,0009.60,0002.66
2023-04-07 14:54:00,,0833.6,5.01,0.00,22.5,20.8,00.0,30.9,24.0,08.7,0000.0,0003.61,0009.64,0002.66
2023-04-07 14:55:00,,0833.7,4.99,0.00,22.5,20.8,00.0,30.9,24.0,08.9,0000.0,0003.59,0009.10,0002.65
2023-04-07 14:56:00,,0833.6,4.99,0.00,22.5,20.8,00.0,30.9,24.0,09.1,0000.0,0003.61,0008.87,0002.63
2023-04-07 14:57:00,,0833.6,4.98,0.00,22.5,20.8,00.0,30.9,24.0,09.2,0000.0,0003.60,0009.11,0002.60
2023-04-07 14:58:00,,0833.6,5.00,0.00,22.5,20.8,00.0,30.9,24.0,09.1,0000.0,0003.64,0009.16,0002.58
2023-04-07 14:59:00,,0833.6,5.00,0.00,22.5,20.8,00.0,30.9,23.9,09.1,0000.0,0003.65,0008.63,0002.59
